Overview Statistics Trail Chart Weather Telemetry Raw packets
 

This is the latest recevied weather packets stored in our database for station/object SV3AQT-13. If no packets are shown the sender has not sent any weather packets the latest 10 day(s).

<< 1 2 3 4 >>
Time Temp. Humidity Pressure Rain* Wind** Luminosity Snow
1788612783 31.11° C 64% 1018.2 hPa 0 mm 0.89 m/s, 79° - -
1788612602 31.11° C 65% 1018.2 hPa 0 mm 0.89 m/s, 74° - -
1788612433 31.11° C 65% 1018.2 hPa 0 mm 0.89 m/s, 61° - -
1788612242 30.56° C 64% 1018.2 hPa 0 mm 1.34 m/s, 97° - -
1788612062 30.56° C 64% 1018.2 hPa 0 mm 1.79 m/s, 58° - -
1788611883 30.56° C 65% 1018.2 hPa 0 mm 1.79 m/s, 75° - -
1788611702 30.56° C 64% 1018.9 hPa 0 mm 1.79 m/s, 58° - -
1788611523 30.56° C 66% 1018.9 hPa 0 mm 1.79 m/s, 82° - -
1788611343 31.11° C 66% 1018.9 hPa 0 mm 1.79 m/s, 83° - -
1788611163 31.11° C 68% 1018.9 hPa 0 mm 0.89 m/s, 73° - -
1788610982 31.11° C 67% 1019.3 hPa 0 mm 1.34 m/s, 78° - -
1788610823 31.11° C 67% 1019.3 hPa 0 mm 2.24 m/s, 73° - -
1788610622 31.11° C 66% 1019.3 hPa 0 mm 1.34 m/s, 84° - -
1788610442 31.11° C 67% 1019.3 hPa 0 mm 1.79 m/s, 62° - -
1788610262 31.11° C 67% 1019.3 hPa 0 mm 1.79 m/s, 52° - -
1788610082 30.56° C 65% 1019.3 hPa 0 mm 1.34 m/s, 55° - -
1788609903 30.56° C 66% 1019.3 hPa 0 mm 1.79 m/s, 74° - -
1788609722 30.56° C 66% 1019.3 hPa 0 mm 1.79 m/s, 77° - -
1788609543 31.11° C 66% 1019.3 hPa 0 mm 0.89 m/s, 72° - -
1788609362 31.11° C 65% 1019.3 hPa 0 mm 1.79 m/s, 78° - -
1788609183 31.11° C 64% 1019.3 hPa 0 mm 1.34 m/s, 74° - -
1788609002 31.67° C 64% 1019.3 hPa 0 mm 0 m/s - -
1788608822 31.67° C 63% 1019.6 hPa 0 mm 0.45 m/s, 80° - -
1788608642 31.67° C 63% 1019.6 hPa 0 mm 0.89 m/s, 75° - -
1788608463 31.67° C 64% 1019.6 hPa 0 mm 0.45 m/s, 81° - -

* Rain latest hour (hover to see other rain measurements)
** Current wind speed in m/s (hover to see current wind gust speed)